Location: *
(28.3744°N, 81.5492°W)
Time: 03:28:22
(UTC+00:00)

Cosmos 2056 Rocket - Pass Details

Date: 15 June 2025
Orbit: 739 x 795 km, 74.0° (Epoch: 11 July)

Event Time Altitude Azimuth Distance (km) Brightness Sun altitude
Rises 01:13:08 0° 347° (NNW) 3,194 7.5 -10.0°
Reaches altitude 10° 01:15:31 10° 349° (N) 2,261 6.6 -10.4°
Maximum altitude 01:20:37 74° 74° (ENE) 772 3.4 -11.4°
Enters shadow 01:25:26 11° 159° (SSE) 2,145 5.3 -12.2°
